Fulton, TX

5:12 PM CDT on August 30, 2016 (GMT -0500)
Aransas County

Weather History for KRKP - September, 2013

Change the Weather History Date:

Wednesday, September 18, 2013

  Actual Average Record
Temperature  
Mean Temperature 84 °F -  
Max Temperature 88 °F 88 °F 93 °F (2005)
Min Temperature 80 °F 74 °F 58 °F (1981)
Cooling Degree Days 19    
Growing Degree Days 34 (Base 50)    
Moisture  
Dew Point 76 °F    
Average Humidity 78    
Maximum Humidity 88    
Minimum Humidity 67    
Precipitation  
Precipitation 0.06 in - - ()
Sea Level Pressure  
Sea Level Pressure 29.92 in    
Wind  
Wind Speed 11 mph (ESE)    
Max Wind Speed 16 mph    
Max Gust Speed 31 mph    
Visibility 9 miles    
Events Rain    
Averages and records for this station are not official NWS values.
T = Trace of Precipitation, MM = Missing Value Source: NWS Daily Summary

Daily Weather History Graph

Daily Weather History Graph

Search for Another Location

Airport or City:

Trip Planner

Search our weather history database for the weather conditions in past years. The results will help you decide how hot, cold, wet, or windy it might be!

Date:

Astronomy

Sep. 18, 2013 Rise Set
Actual Time 7:14 AM CDT 7:29 PM CDT
Civil Twilight 6:51 AM CDT 7:52 PM CDT
Nautical Twilight 6:23 AM CDT 8:19 PM CDT
Astronomical Twilight 5:56 AM CDT 8:47 PM CDT
Moon 6:54 PM CDT (9/18) 6:20 AM CDT (9/18)
Length of Visible Light 13h 01m
Length of Day
12h 14m
Waxing Gibbous, 99% of the Moon is Illuminated
Sep 18
Waxing Gibbous
Sep 19
Full
Sep 26
Last Quarter
Oct 4
New
Oct 11
First Quarter

Hourly Weather History & Observations

Time (CDT) Temp. Heat Index Dew Point Humidity Pressure Visibility Wind Dir Wind Speed Gust Speed Precip Events Conditions
12:53 AM 82.9 °F 90.8 °F 75.9 °F 79% 29.96 in 10.0 mi ESE 9.2 mph - N/A   Partly Cloudy
1:53 AM 82.9 °F 91.8 °F 77.0 °F 82% 29.95 in 10.0 mi ESE 9.2 mph - N/A   Clear
2:53 AM 82.0 °F 89.4 °F 75.9 °F 82% 29.94 in 10.0 mi ESE 10.4 mph - N/A   Clear
3:53 AM 82.0 °F 89.4 °F 75.9 °F 82% 29.93 in 10.0 mi East 8.1 mph - N/A   Clear
4:53 AM 82.0 °F 89.4 °F 75.9 °F 82% 29.92 in 10.0 mi ESE 9.2 mph - N/A   Clear
5:53 AM 82.0 °F 88.6 °F 75.0 °F 79% 29.91 in 10.0 mi East 8.1 mph - N/A   Clear
6:53 AM 82.0 °F 89.4 °F 75.9 °F 82% 29.92 in 10.0 mi ESE 11.5 mph - N/A   Clear
7:53 AM 82.0 °F 89.4 °F 75.9 °F 82% 29.94 in 10.0 mi East 9.2 mph - N/A   Partly Cloudy
8:53 AM 82.9 °F 90.8 °F 75.9 °F 79% 29.94 in 10.0 mi East 9.2 mph - N/A   Partly Cloudy
9:53 AM 84.0 °F 91.9 °F 75.0 °F 74% 29.96 in 10.0 mi East 11.5 mph - N/A   Partly Cloudy
10:53 AM 87.1 °F 98.8 °F 77.0 °F 72% 29.97 in 10.0 mi East 13.8 mph - N/A   Scattered Clouds
11:53 AM 88.0 °F 98.5 °F 75.9 °F 67% 29.96 in 10.0 mi ESE 13.8 mph - N/A   Partly Cloudy
12:53 PM 87.1 °F 98.8 °F 77.0 °F 72% 29.94 in 10.0 mi ESE 12.7 mph - N/A   Partly Cloudy
1:53 PM 84.9 °F 94.1 °F 75.9 °F 74% 29.92 in 10.0 mi ESE 11.5 mph - N/A   Partly Cloudy
2:53 PM 86.0 °F 96.0 °F 75.9 °F 72% 29.91 in 10.0 mi East 12.7 mph - N/A   Clear
3:53 PM 84.9 °F 94.1 °F 75.9 °F 74% 29.89 in 10.0 mi East 12.7 mph - N/A   Clear
4:53 PM 86.0 °F 96.0 °F 75.9 °F 72% 29.88 in 10.0 mi East 15.0 mph - N/A   Scattered Clouds
5:53 PM 86.0 °F 96.0 °F 75.9 °F 72% 29.88 in 10.0 mi East 15.0 mph - N/A   Clear
6:53 PM 84.0 °F 91.9 °F 75.0 °F 74% 29.88 in 10.0 mi East 11.5 mph - N/A   Clear
7:20 PM 80.6 °F 86.2 °F 75.2 °F 84% 29.88 in 2.0 mi SSE 16.1 mph 31.1 mph 0.04 in Rain Rain
7:27 PM 80.6 °F 86.2 °F 75.2 °F 84% 29.88 in 1.8 mi ESE 11.5 mph - 0.06 in Rain Rain
7:29 PM 80.6 °F 86.2 °F 75.2 °F 84% 29.88 in 3.0 mi ESE 12.7 mph - 0.06 in Rain Light Rain
7:53 PM 82.0 °F 91.0 °F 78.1 °F 88% 29.88 in 10.0 mi ESE 10.4 mph - 0.06 in   Overcast
8:53 PM 82.9 °F 90.8 °F 75.9 °F 79% 29.90 in 10.0 mi ESE 11.5 mph - N/A   Clear
9:53 PM 82.9 °F 91.8 °F 77.0 °F 82% 29.91 in 10.0 mi ESE 12.7 mph - N/A   Clear
10:53 PM 82.9 °F 91.8 °F 77.0 °F 82% 29.91 in 10.0 mi ESE 9.2 mph - N/A   Clear
11:53 PM 82.9 °F 90.8 °F 75.9 °F 79% 29.91 in 10.0 mi ESE 12.7 mph - N/A   Clear